Location: Hancock Field Station
(44.9202°N, 120.4259°W)
Time: 04:49:42
(UTC-07:00)

Nadezhda 4 Rocket - Visible Passes

Search period start: 24 May 2016 00:00
Search period end: 03 June 2016 00:00
Orbit: 951 x 991 km, 82.9° (Epoch: 23 May)

Date Brightness Start Highest point End Pass type
(mag) Time Alt. Az. Time Alt. Az. Time Alt. Az.
24 May 4.9 00:47:38 28° WSW 00:50:21 41° WNW 00:56:19 10° N visible
24 May 4.2 23:26:47 38° SSE 23:29:04 58° E 23:35:17 10° NNE visible
25 May 5.6 01:11:20 16° WSW 01:14:48 25° WNW 01:19:54 10° NNW visible
25 May 5.7 22:05:54 12° ESE 22:08:42 16° E 22:12:21 10° NE visible
25 May 4.0 23:50:27 38° SSW 23:53:06 84° W 23:59:30 10° N visible
26 May 6.2 01:35:59 10° W 01:39:26 15° WNW 01:42:53 10° NNW visible
26 May 5.1 22:29:34 20° ESE 22:32:22 28° E 22:37:36 10° NNE visible
27 May 4.6 00:14:06 27° SW 00:17:19 50° WNW 00:23:29 10° N visible
27 May 4.4 22:53:11 28° SSE 22:56:11 47° E 23:02:12 10° NNE visible
28 May 5.4 00:37:44 17° WSW 00:41:41 30° WNW 00:47:12 10° N visible
28 May 5.9 21:33:27 10° E 21:35:58 13° ENE 21:38:30 10° NE visible
28 May 4.0 23:16:49 30° S 23:20:09 80° E 23:26:31 10° N visible
29 May 6.1 01:02:01 10° WSW 01:06:14 18° WNW 01:10:29 10° NNW visible
29 May 5.3 21:55:51 14° SE 21:59:34 23° E 22:04:17 10° NE visible
29 May 4.4 23:40:23 24° SSW 23:44:17 62° W 23:50:35 10° N visible
30 May 6.5 01:29:50 10° WNW 01:30:59 10° WNW 01:32:08 10° NW visible
30 May 4.7 22:19:24 19° SE 22:23:19 38° E 22:29:05 10° NNE visible
31 May 5.2 00:03:57 15° SW 00:08:36 37° WNW 00:14:24 10° N visible
31 May 4.1 22:42:56 21° S 22:47:14 65° E 22:53:30 10° NNE visible
01 Jun 5.9 00:28:15 10° WSW 00:33:04 22° WNW 00:37:54 10° NNW visible
01 Jun 5.5 21:22:43 10° ESE 21:26:47 18° E 21:30:50 10° NE visible
01 Jun 4.1 23:06:26 18° SSW 23:11:19 76° W 23:17:39 10° N visible
02 Jun 6.4 00:54:51 10° W 00:57:44 13° WNW 01:00:38 10° NNW visible
02 Jun 4.9 21:45:22 11° SE 21:50:28 31° E 21:55:53 10° NNE visible
02 Jun 4.9 23:29:53 12° SW 23:35:32 45° WNW 23:41:35 10° N visible
